Location: Haram ta Haram Freeway
(35.0583°N, 51.4202°E)
Time: 14:54:57
(UTC+04:30)

CAS-4A - Pass Details

Date: 07 July 2020
Orbit: 528 x 545 km, 43.0° (Epoch: 02 August)

Event Time Altitude Azimuth Distance (km) Brightness Sun altitude
Exits shadow 04:37:24 17° 269° (W) 1,397 ? -14.2°
Maximum altitude 04:40:19 48° 339° (NNW) 703 ? -13.7°
Drops below altitude 10° 04:44:15 10° 55° (NE) 1,779 ? -13.1°
Sets 04:46:33 0° 61° (ENE) 2,667 ? -12.7°
